Theta_e
303 303 304 306 308 307 306 309 314 312 311 312 312 310 311 310 309 309 309 305 305 304 309 309 311 309 313 309 310 312 312 316 316 318 320 323 327 329 329 326 325 327 325 325 325
300 301 301 302 304 306 306 307 311 314 312 311 312 312 310 310 308 309 307 308 306 308 305 309 309 310 308 307 308 309 312 314 315 317 320 321 323 325 324 323 324 325 324 324 323
299 299 299 300 300 301 303 306 311 311 313 312 312 312 310 308 310 315 319 316 312 310 311 309 309 310 308 307 308 310 312 314 316 315 318 320 321 324 321 320 321 319 320 321 320
300 301 302 301 300 300 302 303 307 310 312 312 311 311 310 310 317 321 314 311 313 309 313 310 308 311 307 307 307 310 311 312 314 315 319 320 318 322 324 321 318 318 318 318 317
309 310 308 305 302 301 302 303 304 310 311 311 311 312 309 311 313 310 315 313 313 313 310 308 308 310 314 309 308 309 311 312 313 314 313 316 320 322 322 325 319 318 318 317 317
311 311 311 309 303 301 302 303 304 304 309 311 312 311 311 310 313 317 311 314 314 312 308 306 308 309 313 313 309 310 311 313 312 313 312 314 315 316 318 318 318 318 317 317 318
312 312 312 311 308 307 307 307 307 306 309 311 312 312 312 311 312 314 311 309 312 311 306 307 309 314 314 311 311 311 311 312 313 312 313 313 315 316 317 317 317 317 315 316 317
312 312 311 311 310 309 309 308 307 308 311 312 311 313 312 313 315 314 313 310 309 309 309 312 309 311 313 313 313 312 312 312 313 314 315 314 315 316 316 316 316 316 315 316 317
312 311 311 311 311 310 308 307 308 311 314 312 311 312 315 316 317 315 314 313 314 311 308 312 313 312 315 314 312 313 312 313 314 313 315 315 315 316 316 316 315 315 315 316 316
311 311 311 311 312 309 307 308 311 313 314 313 313 313 315 318 312 313 314 314 315 314 314 316 312 314 311 312 314 315 315 314 315 315 314 314 314 314 317 315 315 315 315 316 316
311 310 310 310 311 309 307 309 317 317 315 316 317 316 317 319 315 311 312 318 315 315 315 314 312 313 313 313 315 315 316 315 315 315 314 315 315 314 314 316 316 315 315 315 315
310 310 310 310 309 309 307 307 316 317 317 318 319 316 317 318 314 313 315 316 315 314 314 314 313 313 315 316 316 317 316 315 315 316 315 313 313 315 315 315 314 315 314 314 316
309 310 310 310 309 312 309 311 314 313 315 319 321 321 320 318 318 316 317 315 315 315 315 314 316 316 316 316 317 316 315 316 316 316 316 316 316 317 317 318 317 315 316 315 319
309 309 309 309 314 312 313 317 317 316 318 323 322 322 319 316 317 317 316 316 316 316 315 315 317 318 318 318 315 315 316 318 319 316 316 317 318 317 318 317 318 317 317 317 317
309 309 309 308 309 311 317 316 316 316 333 326 322 320 316 316 318 318 317 316 317 317 317 316 316 316 317 316 316 315 319 319 319 316 316 317 316 316 317 319 318 316 316 315 315
309 309 308 309 310 317 317 317 317 323 331 327 319 318 317 316 317 318 317 316 316 316 316 315 315 317 317 317 316 318 317 315 316 315 317 317 317 317 317 318 318 317 316 316 315
308 309 309 308 312 318 315 314 323 328 328 324 319 317 317 318 318 318 318 316 316 316 315 316 316 316 318 320 318 315 314 316 318 320 320 322 321 318 319 318 317 316 317 316 315
308 309 310 313 313 312 317 320 330 329 328 325 319 318 318 318 318 318 318 316 315 315 316 316 320 320 320 320 320 319 316 318 324 325 323 319 325 324 318 317 317 318 317 315 314
308 309 310 315 317 315 316 325 328 329 320 320 320 319 319 319 319 319 317 317 317 314 316 322 323 320 320 320 318 319 318 318 320 321 321 320 321 320 319 319 318 317 316 315 314
308 309 313 318 320 318 320 325 327 320 319 319 321 321 321 321 321 324 320 323 324 319 317 319 321 320 322 321 320 319 319 321 319 325 324 322 322 323 319 319 317 316 315 313 313
308 313 320 320 320 317 323 325 326 318 318 319 320 320 320 320 322 324 326 324 323 320 318 318 318 320 319 322 321 321 321 318 320 324 322 321 321 318 317 314 313 312 312 310 308
307 313 320 319 318 318 323 324 323 321 318 318 319 320 320 320 320 322 321 320 321 319 321 320 318 322 321 319 319 320 319 317 322 321 320 318 318 319 317 316 312 310 311 310 310
306 309 312 318 319 319 319 325 324 322 317 318 319 319 318 319 320 321 321 318 319 320 320 318 319 320 319 316 319 322 321 318 318 317 320 322 319 318 318 316 314 311 310 310 309
306 314 315 314 315 318 320 322 320 320 319 318 318 317 317 318 316 319 320 320 318 320 323 318 318 318 319 323 322 325 324 322 322 318 319 319 318 316 315 315 313 311 309 308 308
307 314 312 316 316 313 315 318 318 319 318 316 318 317 317 318 316 319 317 317 318 320 317 314 318 319 318 318 320 323 323 322 324 323 319 317 313 313 314 313 312 310 311 311 309
309 314 312 313 315 315 317 318 319 318 317 317 317 316 314 316 316 317 315 315 317 315 318 315 315 317 318 318 318 319 320 322 323 323 324 321 320 314 313 310 311 311 310 310 309
309 310 310 312 313 314 315 315 317 314 315 315 313 313 313 313 312 311 311 311 312 315 315 316 317 319 319 319 319 320 319 318 318 321 321 321 316 313 312 311 310 309 309 309 308
Wind_Speed
21 20 21 21 22 23 23 21 19 16 14 13 11 13 13 14 16 14 9 12 7 20 8 1 4 14 11 3 2 4 3 9 7 6 7 6 5 23 2 13 2 3 8 8 14
20 20 19 20 21 21 21 21 21 19 16 14 12 11 11 12 15 16 21 16 14 7 19 10 3 5 2 4 3 5 7 9 5 9 10 3 3 14 6 3 3 2 5 5 8
21 21 21 20 20 21 21 20 19 20 18 14 11 10 9 8 4 9 2 9 18 19 11 12 6 1 7 4 4 4 6 9 18 13 12 11 7 18 7 5 1 5 5 2 4
22 22 22 23 22 22 21 21 20 20 18 14 12 8 8 3 3 4 7 9 18 21 14 6 4 3 6 7 7 3 8 10 13 10 12 8 11 21 20 11 3 4 4 6 6
22 24 24 24 25 24 23 22 23 19 18 14 10 7 1 1 11 11 10 9 21 20 19 7 5 5 5 7 5 6 11 8 16 16 7 9 15 22 9 19 6 3 5 5 5
23 25 26 27 26 24 26 26 25 24 18 15 9 5 2 4 6 6 8 16 19 24 21 15 7 8 4 6 8 7 18 19 11 17 6 9 9 8 10 10 8 4 4 5 2
24 25 27 28 27 31 32 29 26 25 18 11 8 5 4 14 5 9 12 15 21 29 8 17 17 4 3 6 15 12 9 8 17 11 10 9 6 7 7 8 9 9 7 6 6
28 28 28 30 30 33 30 27 24 19 11 5 5 4 8 9 9 18 15 12 17 25 20 19 24 7 6 7 5 9 5 11 12 9 8 11 9 8 10 8 11 10 8 7 5
31 30 31 32 30 30 28 27 13 7 5 6 5 4 10 12 6 21 20 13 18 22 22 17 8 8 1 4 4 2 6 6 6 8 6 6 5 11 8 8 10 12 9 7 6
31 31 32 32 31 30 27 14 2 1 6 6 5 2 8 4 8 11 16 24 7 4 4 5 4 1 3 4 3 5 3 0 4 5 3 4 9 7 5 8 10 10 9 9 8
31 32 31 33 31 24 23 3 2 2 5 10 8 5 4 6 9 9 15 10 4 2 4 3 3 5 8 7 6 3 5 4 4 8 11 14 12 11 6 5 3 4 3 6 8
32 32 34 35 36 24 9 3 7 5 7 19 17 11 15 11 3 7 15 6 4 5 1 5 7 10 7 7 7 9 5 6 6 5 1 7 10 6 7 6 8 9 9 10 4
34 34 34 37 28 3 6 14 6 6 2 5 9 8 7 6 4 8 11 7 4 5 6 6 11 7 9 10 10 11 8 5 5 3 5 4 5 2 3 3 4 6 3 5 11
35 33 36 40 1 7 8 14 14 4 3 5 6 6 5 3 4 6 14 7 5 9 5 6 12 8 11 13 9 1 3 3 6 5 1 4 2 4 4 5 4 3 9 11 9
37 36 36 24 13 4 6 17 9 3 3 3 5 7 8 8 2 6 8 3 7 5 2 6 3 6 7 5 6 6 8 6 4 4 3 3 4 7 3 4 5 7 7 9 9
38 40 36 8 8 12 14 20 6 2 4 3 5 5 7 5 4 2 4 4 3 3 4 7 5 4 4 9 5 8 6 8 5 3 2 5 5 5 4 6 4 3 7 8 7
42 39 31 13 7 3 18 3 4 2 5 4 5 7 10 7 6 5 6 5 5 3 2 4 4 4 2 1 7 6 6 3 4 4 5 2 3 8 2 8 9 9 8 7 7
43 37 13 16 15 9 7 4 2 5 9 6 4 11 9 7 7 9 6 5 6 2 1 3 4 1 1 3 2 4 6 5 5 2 3 6 3 5 8 7 8 8 8 7 7
40 22 11 17 13 12 4 2 5 5 1 5 6 7 11 11 5 12 9 8 7 9 7 5 3 2 5 3 3 2 4 6 5 1 2 4 1 7 3 8 6 6 6 7 8
30 11 10 12 11 7 3 5 5 1 2 3 2 5 2 5 5 2 5 1 2 1 5 4 1 3 4 5 4 4 3 3 3 2 3 4 4 5 4 6 6 6 7 8 9
7 4 7 12 15 3 3 6 5 3 4 3 1 2 2 2 2 2 4 1 1 5 2 3 4 4 4 1 4 3 1 4 4 5 4 1 4 2 6 7 8 9 9 4 7
7 3 1 11 2 3 3 5 3 6 4 3 2 0 2 3 3 2 3 2 2 3 2 3 4 3 6 4 4 4 7 6 5 6 5 4 6 1 5 4 8 7 9 7 7
4 4 10 6 3 3 5 3 2 15 5 3 3 5 4 3 2 3 4 5 9 6 4 4 1 2 7 6 5 2 2 3 2 3 8 7 5 5 8 7 9 7 5 5 6
2 4 3 3 1 3 4 3 2 14 3 5 4 6 6 5 6 2 2 7 5 3 6 5 3 5 6 4 4 3 2 5 2 1 4 5 4 11 9 6 5 3 5 6 6
2 4 1 3 3 7 4 3 3 3 4 6 6 6 5 3 5 3 7 6 6 9 4 4 2 2 4 5 3 5 7 5 9 10 4 4 6 10 7 6 3 4 4 6 6
2 2 4 4 5 6 3 3 7 2 3 3 6 6 6 4 3 1 3 3 2 6 4 5 2 1 4 5 5 8 9 14 15 14 12 11 9 4 3 4 6 5 4 5 5
7 6 1 4 5 4 5 9 3 6 6 6 8 5 5 3 2 3 4 4 4 1 2 1 3 3 4 4 5 5 15 16 15 16 13 12 3 2 1 5 4 4 4 5 6
Wind_Direction
343 344 345 345 346 346 346 342 331 323 318 315 319 321 319 318 312 305 258 241 241 219 171 330 182 206 224 247 222 157 165 218 217 221 249 13 87 283 311 324 88 137 144 186 149
338 338 340 340 339 340 340 340 335 325 317 315 315 317 320 320 308 262 252 255 231 172 210 229 192 169 190 211 211 165 207 223 219 235 264 277 183 259 48 212 295 356 343 157 163
339 337 337 337 336 334 336 333 330 330 319 308 307 313 319 322 287 244 209 252 216 197 205 200 232 199 187 206 229 202 219 218 247 250 263 265 5 282 320 280 18 25 112 99 65
342 340 338 335 333 330 331 331 328 328 321 306 301 306 320 309 260 232 266 244 176 183 194 185 179 157 188 202 221 233 218 218 247 247 250 303 211 232 234 251 174 275 279 144 123
345 342 339 337 332 330 328 327 327 321 317 309 291 300 22 229 250 254 271 178 163 182 190 184 162 168 209 198 225 199 252 224 233 246 204 228 256 251 255 273 258 287 79 106 109
344 342 340 338 333 331 327 323 322 319 315 307 278 277 206 270 257 236 184 164 173 180 195 186 191 209 280 228 177 215 224 244 246 240 223 205 233 165 212 220 248 214 237 169 132
341 339 337 336 333 328 322 317 314 316 312 290 255 238 252 240 212 207 184 191 187 192 170 202 210 147 170 278 231 235 266 261 250 247 229 198 234 219 208 217 233 243 238 229 207
335 334 333 333 331 328 319 312 312 313 307 254 213 213 250 260 305 211 244 238 203 203 213 208 210 201 168 259 246 198 191 244 268 196 231 147 240 239 232 202 229 230 224 233 210
332 331 331 330 326 323 317 311 321 304 287 177 173 198 264 303 231 231 229 223 217 220 235 249 226 193 182 224 5 23 204 182 258 190 190 160 225 237 223 211 256 220 210 212 235
331 330 330 330 322 326 318 320 117 125 103 160 262 321 263 244 210 206 220 228 223 206 254 206 55 339 8 73 237 256 247 48 214 263 180 212 231 245 225 199 211 194 199 202 213
334 332 331 330 325 324 324 6 104 93 222 201 191 240 263 289 204 215 226 211 238 135 208 267 104 229 250 219 228 240 253 248 282 268 228 228 218 235 188 194 236 268 245 225 220
336 334 335 333 329 314 292 251 224 116 281 226 234 250 279 280 240 223 211 165 156 217 223 343 248 228 252 287 282 280 265 273 264 268 158 174 205 209 174 197 187 210 227 229 88
338 337 337 335 333 330 219 243 290 331 295 274 199 221 229 177 225 201 161 185 187 227 228 195 250 250 242 260 266 274 193 223 207 345 6 70 5 170 281 347 295 205 134 90 138
337 338 339 335 355 320 254 337 327 144 25 272 188 239 176 146 281 203 186 155 200 231 241 237 266 261 257 239 208 193 255 68 53 79 213 54 260 304 268 294 10 84 111 117 118
335 335 335 335 285 269 278 330 351 112 353 197 169 181 146 164 195 202 186 159 212 257 26 268 287 339 326 251 180 213 120 113 120 114 97 333 98 265 316 28 91 108 120 131 130
334 331 332 326 247 262 327 323 328 98 256 244 139 158 138 219 266 48 144 145 182 233 251 245 255 255 225 314 259 152 74 33 45 82 59 219 135 273 239 167 171 144 136 131 122
331 326 316 266 228 254 329 12 64 165 285 175 189 153 172 197 226 211 165 172 183 158 254 329 277 269 269 342 17 73 71 7 355 16 229 101 69 235 301 160 150 152 141 137 133
330 325 304 251 258 280 344 56 193 257 230 292 131 162 185 191 220 189 167 185 244 173 200 202 317 12 221 117 154 48 138 148 178 179 274 317 237 284 112 108 120 135 151 155 161
330 324 281 249 237 232 81 128 219 227 353 356 326 166 217 210 205 187 180 202 201 180 185 174 231 26 48 42 102 321 63 172 110 82 82 247 270 38 93 118 129 162 177 200 211
328 312 273 225 197 142 99 231 241 247 88 41 308 32 105 359 148 63 165 9 312 94 160 211 266 9 14 45 31 100 167 63 34 140 237 272 241 172 164 170 188 205 217 238 238
329 327 272 155 167 76 191 230 301 177 147 128 77 346 2 84 45 106 214 258 116 32 39 125 110 279 46 93 189 1 19 114 114 131 187 217 271 179 176 198 206 230 229 271 35
351 315 198 176 108 206 199 221 312 275 179 173 159 189 53 33 140 146 127 62 349 105 45 320 131 169 240 247 229 221 209 166 138 210 216 164 255 186 133 273 252 323 95 80 74
315 265 304 184 205 251 270 251 283 302 217 119 101 78 46 33 67 77 80 41 55 42 160 177 29 53 342 351 9 33 270 106 124 103 210 208 254 299 314 335 66 82 57 65 77
321 316 307 31 77 318 335 308 60 281 74 80 117 78 70 41 20 19 50 41 35 75 68 72 137 159 185 185 175 284 299 347 92 126 244 215 256 274 260 120 103 53 67 72 73
218 257 296 336 327 322 292 301 300 329 22 42 46 78 121 70 13 66 11 5 34 4 43 84 175 201 249 259 213 226 256 272 278 240 225 249 229 262 121 134 117 96 65 50 25
278 355 345 283 280 321 301 308 297 71 37 49 100 72 75 108 146 130 59 41 15 10 55 352 218 91 280 287 285 286 236 230 231 234 251 267 285 68 105 98 89 63 42 19 347
332 328 149 285 345 333 355 320 168 123 50 100 126 108 73 97 113 195 183 216 220 254 113 52 132 92 255 325 296 288 249 245 233 227 227 235 132 200 88 114 105 60 19 344 334